,,Stat5,,Stat1,,Stat2,,Stat3,,Stat4,,Wind1,,Wind1,
time,status,PA1M_AVG,status,PR1M_SUM,status,RH1M_AVG,status,SR1M_AVG,status,TA1M_AVG,status,W1dAve1m,status,W1sAve1m,
2000-11-18, 00:00:00,VALID,914.99,VALID,0,VALID,100,VALID,0,VALID,19.7482,VALID,188,VALID,0.114926,
2000-11-18, 00:01:00,VALID,914.99,VALID,0,VALID,100,VALID,0,VALID,19.7581,VALID,187,VALID,0.38101,
2000-11-18, 00:02:00,VALID,914.988,VALID,0,VALID,100,VALID,0,VALID,19.7422,VALID,184,VALID,0.660056,
2000-11-18, 00:03:00,VALID,914.984,VALID,0,VALID,100,VALID,0.0169808,VALID,19.7328,VALID,166,VALID,0.712788,
2000-11-18, 00:04:00,VALID,914.976,VALID,0,VALID,100,VALID,0,VALID,19.7452,VALID,152,VALID,0.714614,
2000-11-18, 00:05:00,VALID,914.966,VALID,0,VALID,100,VALID,0,VALID,19.7551,VALID,141,VALID,0.551604,
2000-11-18, 00:06:00,VALID,914.958,VALID,0,VALID,100,VALID,0,VALID,19.7678,VALID,141,VALID,0.509079,
2000-11-18, 00:07:00,VALID,914.951,VALID,0,VALID,100,VALID,0,VALID,19.7646,VALID,142,VALID,0.286595,
2000-11-18, 00:08:00,VALID,914.922,VALID,0,VALID,100,VALID,0,VALID,19.7678,VALID,138,VALID,0,
2000-11-18, 00:09:00,VALID,914.929,VALID,0,VALID,100,VALID,0,VALID,19.7614,VALID,135,VALID,0,
2000-11-18, 00:10:00,VALID,914.917,VALID,0,VALID,100,VALID,0.0169808,VALID,19.7487,VALID,142,VALID,0,
2000-11-18, 00:11:00,VALID,914.925,VALID,0,VALID,100,VALID,0,VALID,19.7584,VALID,142,VALID,0,
2000-11-18, 00:12:00,VALID,914.919,VALID,0,VALID,100,VALID,0.0169808,VALID,19.745,VALID,143,VALID,0,
2000-11-18, 00:13:00,VALID,914.928,VALID,0.2,VALID,100,VALID,0,VALID,19.7283,VALID,150,VALID,0,
2000-11-18, 00:14:00,VALID,914.929,VALID,0,VALID,100,VALID,0.0169808,VALID,19.7452,VALID,155,VALID,0,
2000-11-18, 00:15:00,VALID,914.946,VALID,0,VALID,100,VALID,0.0169808,VALID,19.7325,VALID,156,VALID,0,
2000-11-18, 00:16:00,VALID,914.94,VALID,0,VALID,100,VALID,0,VALID,19.7151,VALID,155,VALID,0,
2000-11-18, 00:17:00,VALID,914.933,VALID,0,VALID,100,VALID,0.0169808,VALID,19.7159,VALID,147,VALID,0.289063,
2000-11-18, 00:18:00,VALID,914.934,VALID,0,VALID,100,VALID,-0.0679233,VALID,19.7271,VALID,142,VALID,0.698661,
2000-11-18, 00:19:00,VALID,914.919,VALID,0,VALID,100,VALID,-0.0849042,VALID,19.7179,VALID,136,VALID,0.717969,
2000-11-18, 00:20:00,VALID,914.905,VALID,0.2,VALID,100,VALID,-0.101885,VALID,19.7176,VALID,141,VALID,0.627987,
2000-11-18, 00:21:00,VALID,914.889,VALID,0,VALID,100,VALID,-0.0679233,VALID,19.7144,VALID,146,VALID,0.622466,
2000-11-18, 00:22:00,VALID,914.86,VALID,0,VALID,100,VALID,-0.118866,VALID,19.7149,VALID,139,VALID,0.581112,
2000-11-18, 00:23:00,VALID,914.837,VALID,0,VALID,100,VALID,-0.101885,VALID,19.7017,VALID,151,VALID,0.475084,
2000-11-18, 00:24:00,VALID,914.806,VALID,0,VALID,100,VALID,-0.0679233,VALID,19.6977,VALID,181,VALID,0.423096,
2000-11-18, 00:25:00,VALID,914.783,VALID,0,VALID,100,VALID,-0.0849042,VALID,19.6982,VALID,194,VALID,0.332933,
2000-11-18, 00:26:00,VALID,914.74,VALID,0,VALID,100,VALID,-0.101885,VALID,19.698,VALID,209,VALID,0.00178571,
2000-11-18, 00:27:00,VALID,914.714,VALID,0,VALID,100,VALID,-0.0679233,VALID,19.7111,VALID,215,VALID,0.529983,
2000-11-18, 00:28:00,VALID,914.691,VALID,0,VALID,100,VALID,-0.101885,VALID,19.7208,VALID,205,VALID,0.504136,
2000-11-18, 00:29:00,VALID,914.679,VALID,0,VALID,100,VALID,-0.101885,VALID,19.7146,VALID,197,VALID,0.48353,
2000-11-18, 00:30:00,VALID,914.667,VALID,0,VALID,100,VALID,-0.101885,VALID,19.7176,VALID,185,VALID,0.644942,
2000-11-18, 00:31:00,VALID,914.658,VALID,0.2,VALID,100,VALID,-0.0849042,VALID,19.7174,VALID,167,VALID,0.768092,
2000-11-18, 00:32:00,VALID,914.644,VALID,0,VALID,100,VALID,-0.0849042,VALID,19.7246,VALID,161,VALID,0.464063,
2000-11-18, 00:33:00,VALID,914.631,VALID,0,VALID,100,VALID,-0.0339617,VALID,19.736,VALID,166,VALID,0,
2000-11-18, 00:34:00,VALID,914.608,VALID,0,VALID,100,VALID,0.0339617,VALID,19.7226,VALID,154,VALID,0,
2000-11-18, 00:35:00,VALID,914.564,VALID,0,VALID,100,VALID,0,VALID,19.7358,VALID,158,VALID,0,
2000-11-18, 00:36:00,VALID,914.543,VALID,0,VALID,100,VALID,-0.0169808,VALID,19.732,VALID,171,VALID,0,
2000-11-18, 00:37:00,VALID,914.502,VALID,0,VALID,100,VALID,0,VALID,19.7355,VALID,190,VALID,0,
2000-11-18, 00:38:00,VALID,914.468,VALID,0,VALID,100,VALID,0,VALID,19.7452,VALID,220,VALID,0,
2000-11-18, 00:39:00,VALID,914.429,VALID,0,VALID,100,VALID,0,VALID,19.7584,VALID,200,VALID,0,
2000-11-18, 00:40:00,VALID,914.408,VALID,0.2,VALID,100,VALID,0,VALID,19.7653,VALID,202,VALID,0,
2000-11-18, 00:41:00,VALID,914.404,VALID,0,VALID,100,VALID,-0.0169808,VALID,19.7589,VALID,200,VALID,0,
2000-11-18, 00:42:00,VALID,914.387,VALID,0,VALID,100,VALID,0,VALID,19.7524,VALID,191,VALID,0.373355,
2000-11-18, 00:43:00,VALID,914.385,VALID,0,VALID,100,VALID,0,VALID,19.7387,VALID,182,VALID,0.602796,
2000-11-18, 00:44:00,VALID,914.379,VALID,0,VALID,100,VALID,0,VALID,19.7459,VALID,172,VALID,0.511161,
2000-11-18, 00:45:00,VALID,914.362,VALID,0,VALID,100,VALID,0,VALID,19.732,VALID,167,VALID,0.0346284,
2000-11-18, 00:46:00,VALID,914.34,VALID,0,VALID,100,VALID,0,VALID,19.729,VALID,142,VALID,0.412684,
2000-11-18, 00:47:00,VALID,914.324,VALID,0,VALID,100,VALID,0,VALID,19.7492,VALID,123,VALID,0.446157,
2000-11-18, 00:48:00,VALID,914.287,VALID,0,VALID,100,VALID,0.0169808,VALID,19.7484,VALID,125,VALID,0.32666,
2000-11-18, 00:49:00,VALID,914.255,VALID,0,VALID,100,VALID,0.0169808,VALID,19.7484,VALID,103,VALID,0.495593,
2000-11-18, 00:50:00,VALID,914.228,VALID,0,VALID,100,VALID,0,VALID,19.7514,VALID,93,VALID,0.459375,
2000-11-18, 00:51:00,VALID,914.211,VALID,0,VALID,100,VALID,0,VALID,19.7422,VALID,87,VALID,0.325802,
2000-11-18, 00:52:00,VALID,914.191,VALID,0,VALID,100,VALID,0.0339617,VALID,19.7161,VALID,86,VALID,0.258272,
2000-11-18, 00:53:00,VALID,914.176,VALID,0,VALID,100,VALID,0.0339617,VALID,19.7196,VALID,89,VALID,0.221073,
2000-11-18, 00:54:00,VALID,914.165,VALID,0,VALID,100,VALID,0.0169808,VALID,19.6898,VALID,89,VALID,0,
2000-11-18, 00:55:00,VALID,914.145,VALID,0,VALID,100,VALID,0.0509425,VALID,19.6898,VALID,92,VALID,0.0415296,
2000-11-18, 00:56:00,VALID,914.143,VALID,0,VALID,100,VALID,0.0509425,VALID,19.6933,VALID,92,VALID,0.607143,
2000-11-18, 00:57:00,VALID,914.127,VALID,0.2,VALID,100,VALID,0.0509425,VALID,19.6508,VALID,93,VALID,0.607686,
2000-11-18, 00:58:00,VALID,914.106,VALID,0,VALID,100,VALID,0.0509425,VALID,19.6381,VALID,88,VALID,0.842831,
2000-11-18, 00:59:00,VALID,914.086,VALID,0,VALID,100,VALID,0.0849042,VALID,19.6185,VALID,84,VALID,1.00148,
2000-11-18, 01:00:00,VALID,914.059,VALID,0,VALID,100,VALID,0.0339617,VALID,19.6122,VALID,78,VALID,0.963867,
2000-11-18, 01:01:00,VALID,914.039,VALID,0,VALID,100,VALID,0,VALID,19.609,VALID,68,VALID,0.664663,
2000-11-18, 01:02:00,VALID,914.019,VALID,0,VALID,100,VALID,0.0339617,VALID,19.5956,VALID,69,VALID,0.786384,
2000-11-18, 01:03:00,VALID,914.004,VALID,0.2,VALID,100,VALID,0,VALID,19.6075,VALID,74,VALID,0.640836,
2000-11-18, 01:04:00,VALID,913.982,VALID,0,VALID,100,VALID,-0.0509425,VALID,19.6137,VALID,83,VALID,0.34329,
2000-11-18, 01:05:00,VALID,913.976,VALID,0,VALID,100,VALID,-0.0849042,VALID,19.607,VALID,77,VALID,0.27027,
2000-11-18, 01:06:00,VALID,913.973,VALID,0,VALID,100,VALID,-0.0339617,VALID,19.6038,VALID,64,VALID,0.617599,
2000-11-18, 01:07:00,VALID,913.965,VALID,0.2,VALID,100,VALID,-0.0509425,VALID,19.6234,VALID,80,VALID,0.419613,
2000-11-18, 01:08:00,VALID,913.96,VALID,0,VALID,100,VALID,-0.0679233,VALID,19.611,VALID,101,VALID,0.526116,
2000-11-18, 01:09:00,VALID,913.965,VALID,0,VALID,100,VALID,-0.0679233,VALID,19.6005,VALID,103,VALID,0.646326,
2000-11-18, 01:10:00,VALID,913.954,VALID,0,VALID,100,VALID,-0.0509425,VALID,19.601,VALID,112,VALID,0.491728,
2000-11-18, 01:11:00,VALID,913.945,VALID,0,VALID,100,VALID,-0.0849042,VALID,19.6179,VALID,117,VALID,0.116132,
2000-11-18, 01:12:00,VALID,913.924,VALID,0,VALID,100,VALID,-0.0679233,VALID,19.608,VALID,154,VALID,0.477783,
2000-11-18, 01:13:00,VALID,913.926,VALID,0,VALID,100,VALID,-0.0679233,VALID,19.5973,VALID,163,VALID,0.389022,
2000-11-18, 01:14:00,VALID,913.926,VALID,0,VALID,100,VALID,-0.0509425,VALID,19.6013,VALID,189,VALID,0.152902,
2000-11-18, 01:15:00,VALID,913.914,VALID,0,VALID,100,VALID,-0.101885,VALID,19.5981,VALID,200,VALID,0.00802365,
2000-11-18, 01:16:00,VALID,913.913,VALID,0,VALID,100,VALID,-0.0679233,VALID,19.6015,VALID,231,VALID,0,
2000-11-18, 01:17:00,VALID,913.905,VALID,0,VALID,100,VALID,-0.0679233,VALID,19.6035,VALID,231,VALID,0,
2000-11-18, 01:18:00,VALID,913.905,VALID,0,VALID,100,VALID,0,VALID,19.5926,VALID,234,VALID,0,
2000-11-18, 01:19:00,VALID,913.896,VALID,0,VALID,100,VALID,0.0169808,VALID,19.6063,VALID,237,VALID,0,
2000-11-18, 01:20:00,VALID,913.889,VALID,0,VALID,100,VALID,0.0169808,VALID,19.6189,VALID,234,VALID,0,
2000-11-18, 01:21:00,VALID,913.877,VALID,0,VALID,100,VALID,0,VALID,19.6262,VALID,232,VALID,0,
2000-11-18, 01:22:00,VALID,913.88,VALID,0,VALID,100,VALID,0.0169808,VALID,19.6386,VALID,232,VALID,0,
2000-11-18, 01:23:00,VALID,913.89,VALID,0,VALID,100,VALID,0.0339617,VALID,19.6222,VALID,232,VALID,0,
2000-11-18, 01:24:00,VALID,913.888,VALID,0.2,VALID,100,VALID,0.0169808,VALID,19.6254,VALID,232,VALID,0,
2000-11-18, 01:25:00,VALID,913.882,VALID,0,VALID,100,VALID,0.0169808,VALID,19.6222,VALID,232,VALID,0,
2000-11-18, 01:26:00,VALID,913.89,VALID,0,VALID,100,VALID,0.0169808,VALID,19.6286,VALID,237,VALID,0,
2000-11-18, 01:27:00,VALID,913.898,VALID,0,VALID,100,VALID,0.0169808,VALID,19.6222,VALID,245,VALID,0,
2000-11-18, 01:28:00,VALID,913.899,VALID,0,VALID,100,VALID,0.0339617,VALID,19.6063,VALID,245,VALID,0,
2000-11-18, 01:29:00,VALID,913.896,VALID,0,VALID,100,VALID,0.0169808,VALID,19.5996,VALID,245,VALID,0,
2000-11-18, 01:30:00,VALID,913.902,VALID,0,VALID,100,VALID,0.0169808,VALID,19.5993,VALID,245,VALID,0,
2000-11-18, 01:31:00,VALID,913.908,VALID,0,VALID,100,VALID,0.0679233,VALID,19.5859,VALID,245,VALID,0,
2000-11-18, 01:32:00,VALID,913.909,VALID,0,VALID,100,VALID,0.0509425,VALID,19.5961,VALID,236,VALID,0,
2000-11-18, 01:33:00,VALID,913.921,VALID,0,VALID,100,VALID,-0.0339617,VALID,19.5906,VALID,231,VALID,0,
2000-11-18, 01:34:00,VALID,913.935,VALID,0,VALID,100,VALID,0,VALID,19.5715,VALID,187,VALID,0.0101103,
2000-11-18, 01:35:00,VALID,913.932,VALID,0,VALID,100,VALID,-0.0509425,VALID,19.5556,VALID,165,VALID,0.782728,
2000-11-18, 01:36:00,VALID,913.93,VALID,0,VALID,100,VALID,-0.101885,VALID,19.5563,VALID,168,VALID,0.606201,
2000-11-18, 01:37:00,VALID,913.93,VALID,0,VALID,100,VALID,-0.0509425,VALID,19.5526,VALID,166,VALID,0.571915,
2000-11-18, 01:38:00,VALID,913.904,VALID,0,VALID,100,VALID,-0.0509425,VALID,19.5489,VALID,174,VALID,0.483482,
2000-11-18, 01:39:00,VALID,913.888,VALID,0,VALID,100,VALID,-0.0679233,VALID,19.5528,VALID,174,VALID,0.419341,
2000-11-18, 01:40:00,VALID,913.859,VALID,0,VALID,100,VALID,-0.0849042,VALID,19.5623,VALID,174,VALID,0.138327,
2000-11-18, 01:41:00,VALID,913.846,VALID,0,VALID,100,VALID,-0.0679233,VALID,19.5682,VALID,174,VALID,0.0234375,
2000-11-18, 01:42:00,VALID,913.815,VALID,0,VALID,100,VALID,-0.0849042,VALID,19.5787,VALID,181,VALID,0.0707237,
2000-11-18, 01:43:00,VALID,913.778,VALID,0,VALID,100,VALID,-0.0679233,VALID,19.5625,VALID,199,VALID,0.369655,
2000-11-18, 01:44:00,VALID,913.753,VALID,0,VALID,100,VALID,-0.0679233,VALID,19.5784,VALID,201,VALID,0.327902,
2000-11-18, 01:45:00,VALID,913.718,VALID,0,VALID,100,VALID,-0.0509425,VALID,19.5782,VALID,219,VALID,0.342272,
2000-11-18, 01:46:00,VALID,913.684,VALID,0,VALID,100,VALID,-0.0849042,VALID,19.5814,VALID,220,VALID,0.22955,
2000-11-18, 01:47:00,VALID,913.665,VALID,0,VALID,100,VALID,-0.0679233,VALID,19.601,VALID,224,VALID,0.384079,
2000-11-18, 01:48:00,VALID,913.647,VALID,0,VALID,100,VALID,-0.0849042,VALID,19.6045,VALID,218,VALID,0.430908,
2000-11-18, 01:49:00,VALID,913.647,VALID,0,VALID,100,VALID,-0.0509425,VALID,19.5911,VALID,202,VALID,0.432692,
2000-11-18, 01:50:00,VALID,913.639,VALID,0,VALID,100,VALID,-0.0169808,VALID,19.5879,VALID,197,VALID,0.383259,
2000-11-18, 01:51:00,VALID,913.642,VALID,0,VALID,100,VALID,-0.0169808,VALID,19.5747,VALID,199,VALID,0.782517,
2000-11-18, 01:52:00,VALID,913.653,VALID,0,VALID,100,VALID,-0.0679233,VALID,19.5782,VALID,189,VALID,0.766774,
2000-11-18, 01:53:00,VALID,913.656,VALID,0,VALID,100,VALID,-0.0339617,VALID,19.5916,VALID,186,VALID,1.03843,
2000-11-18, 01:54:00,VALID,913.657,VALID,0,VALID,100,VALID,-0.0679233,VALID,19.6078,VALID,180,VALID,0.942229,
2000-11-18, 01:55:00,VALID,913.654,VALID,0,VALID,100,VALID,-0.0509425,VALID,19.5981,VALID,180,VALID,0.846217,
2000-11-18, 01:56:00,VALID,913.651,VALID,0,VALID,100,VALID,-0.0679233,VALID,19.5881,VALID,183,VALID,0.702009,
2000-11-18, 01:57:00,VALID,913.639,VALID,0,VALID,100,VALID,-0.0679233,VALID,19.5846,VALID,188,VALID,1.06693,
2000-11-18, 01:58:00,VALID,913.636,VALID,0,VALID,100,VALID,-0.0509425,VALID,19.5851,VALID,180,VALID,1.03883,
2000-11-18, 01:59:00,VALID,913.635,VALID,0.2,VALID,100,VALID,-0.0509425,VALID,19.5648,VALID,175,VALID,1.03083,
2000-11-18, 02:00:00,VALID,913.646,VALID,0,VALID,100,VALID,-0.101885,VALID,19.5725,VALID,188,VALID,0.713135,
2000-11-18, 02:01:00,VALID,913.647,VALID,0,VALID,100,VALID,-0.0509425,VALID,19.5392,VALID,177,VALID,0.847155,
2000-11-18, 02:02:00,VALID,913.651,VALID,0,VALID,100,VALID,-0.0679233,VALID,19.5426,VALID,183,VALID,0.872098,
2000-11-18, 02:03:00,VALID,913.651,VALID,0,VALID,100,VALID,-0.0509425,VALID,19.5394,VALID,198,VALID,0.660895,
2000-11-18, 02:04:00,VALID,913.646,VALID,0,VALID,100,VALID,-0.0339617,VALID,19.5332,VALID,203,VALID,0.695542,
2000-11-18, 02:05:00,VALID,913.638,VALID,0,VALID,100,VALID,-0.0509425,VALID,19.5267,VALID,205,VALID,0.660262,
2000-11-18, 02:06:00,VALID,913.627,VALID,0,VALID,100,VALID,-0.0339617,VALID,19.52,VALID,208,VALID,0.822368,
2000-11-18, 02:07:00,VALID,913.613,VALID,0,VALID,100,VALID,-0.101885,VALID,19.5305,VALID,210,VALID,0.879112,
2000-11-18, 02:08:00,VALID,913.599,VALID,0,VALID,100,VALID,-0.0679233,VALID,19.5272,VALID,203,VALID,0.707812,
2000-11-18, 02:09:00,VALID,913.593,VALID,0,VALID,100,VALID,-0.0679233,VALID,19.5143,VALID,212,VALID,0.820313,
2000-11-18, 02:10:00,VALID,913.585,VALID,0,VALID,100,VALID,-0.101885,VALID,19.527,VALID,214,VALID,0.868566,
2000-11-18, 02:11:00,VALID,913.586,VALID,0,VALID,100,VALID,-0.0679233,VALID,19.5235,VALID,218,VALID,1.28505,
2000-11-18, 02:12:00,VALID,913.582,VALID,0,VALID,100,VALID,-0.101885,VALID,19.5275,VALID,208,VALID,1.09888,
2000-11-18, 02:13:00,VALID,913.551,VALID,0,VALID,100,VALID,-0.0509425,VALID,19.5235,VALID,221,VALID,0.913462,
2000-11-18, 02:14:00,VALID,913.534,VALID,0,VALID,100,VALID,-0.0849042,VALID,19.5106,VALID,219,VALID,0.760491,
2000-11-18, 02:15:00,VALID,913.499,VALID,0,VALID,100,VALID,-0.0849042,VALID,19.5205,VALID,225,VALID,0.540963,
2000-11-18, 02:16:00,VALID,913.472,VALID,0,VALID,100,VALID,-0.101885,VALID,19.527,VALID,221,VALID,0.504825,
2000-11-18, 02:17:00,VALID,913.445,VALID,0,VALID,100,VALID,-0.0509425,VALID,19.53,VALID,216,VALID,0.711993,
2000-11-18, 02:18:00,VALID,913.431,VALID,0,VALID,100,VALID,-0.0339617,VALID,19.5265,VALID,219,VALID,0.966283,
2000-11-18, 02:19:00,VALID,913.417,VALID,0,VALID,100,VALID,-0.0339617,VALID,19.5262,VALID,217,VALID,1.02899,
2000-11-18, 02:20:00,VALID,913.417,VALID,0,VALID,100,VALID,-0.0679233,VALID,19.5297,VALID,202,VALID,1.05871,
2000-11-18, 02:21:00,VALID,913.447,VALID,0,VALID,100,VALID,-0.0509425,VALID,19.5397,VALID,202,VALID,0.946157,
2000-11-18, 02:22:00,VALID,913.458,VALID,0,VALID,100,VALID,-0.0679233,VALID,19.5364,VALID,223,VALID,0.73943,
2000-11-18, 02:23:00,VALID,913.466,VALID,0,VALID,100,VALID,-0.0849042,VALID,19.5464,VALID,221,VALID,1.30215,
2000-11-18, 02:24:00,VALID,913.475,VALID,0,VALID,100,VALID,-0.0849042,VALID,19.5262,VALID,233,VALID,0.949951,
2000-11-18, 02:25:00,VALID,913.481,VALID,0,VALID,100,VALID,-0.0679233,VALID,19.5399,VALID,233,VALID,1.19551,
2000-11-18, 02:26:00,VALID,913.471,VALID,0,VALID,100,VALID,-0.0509425,VALID,19.5297,VALID,236,VALID,1.43996,
2000-11-18, 02:27:00,VALID,913.457,VALID,0,VALID,100,VALID,-0.0679233,VALID,19.5429,VALID,237,VALID,1.322,
2000-11-18, 02:28:00,VALID,913.446,VALID,0,VALID,100,VALID,-0.0679233,VALID,19.5595,VALID,228,VALID,1.31227,
2000-11-18, 02:29:00,VALID,913.446,VALID,0,VALID,100,VALID,-0.0679233,VALID,19.5657,VALID,229,VALID,1.48986,
2000-11-18, 02:30:00,VALID,913.441,VALID,0,VALID,100,VALID,-0.0679233,VALID,19.5625,VALID,227,VALID,1.18174,
2000-11-18, 02:31:00,VALID,913.462,VALID,0,VALID,100,VALID,-0.0679233,VALID,19.5625,VALID,229,VALID,1.56353,
2000-11-18, 02:32:00,VALID,913.472,VALID,0,VALID,100,VALID,-0.0509425,VALID,19.559,VALID,232,VALID,1.37946,
2000-11-18, 02:33:00,VALID,913.491,VALID,0,VALID,100,VALID,-0.0169808,VALID,19.5645,VALID,222,VALID,1.22804,
2000-11-18, 02:34:00,VALID,913.491,VALID,0,VALID,100,VALID,0,VALID,19.5643,VALID,219,VALID,1.23667,
2000-11-18, 02:35:00,VALID,913.514,VALID,0,VALID,100,VALID,0,VALID,19.567,VALID,226,VALID,0.86951,
2000-11-18, 02:36:00,VALID,913.529,VALID,0,VALID,100,VALID,0,VALID,19.5804,VALID,214,VALID,0.881104,
2000-11-18, 02:37:00,VALID,913.532,VALID,0,VALID,100,VALID,0,VALID,19.5735,VALID,214,VALID,0.761819,
2000-11-18, 02:38:00,VALID,913.538,VALID,0,VALID,100,VALID,0.0169808,VALID,19.5802,VALID,208,VALID,0.617411,
2000-11-18, 02:39:00,VALID,913.538,VALID,0,VALID,100,VALID,-0.0169808,VALID,19.5837,VALID,200,VALID,0.379434,
2000-11-18, 02:40:00,VALID,913.527,VALID,0,VALID,100,VALID,0.0169808,VALID,19.5933,VALID,199,VALID,0.392693,
2000-11-18, 02:41:00,VALID,913.519,VALID,0,VALID,100,VALID,0.0169808,VALID,19.5931,VALID,199,VALID,0.0920608,
2000-11-18, 02:42:00,VALID,913.502,VALID,0,VALID,100,VALID,0,VALID,19.5866,VALID,199,VALID,0.221628,
2000-11-18, 02:43:00,VALID,913.491,VALID,0.2,VALID,100,VALID,0.0169808,VALID,19.5998,VALID,218,VALID,0.582031,
2000-11-18, 02:44:00,VALID,913.485,VALID,0,VALID,100,VALID,0.0169808,VALID,19.606,VALID,194,VALID,0.487277,
2000-11-18, 02:45:00,VALID,913.483,VALID,0,VALID,100,VALID,0.0169808,VALID,19.606,VALID,206,VALID,0.579603,
2000-11-18, 02:46:00,VALID,913.488,VALID,0,VALID,100,VALID,0,VALID,19.6222,VALID,216,VALID,0.493336,
2000-11-18, 02:47:00,VALID,913.497,VALID,0,VALID,100,VALID,0.0169808,VALID,19.6289,VALID,198,VALID,0.39147,
2000-11-18, 02:48:00,VALID,913.497,VALID,0,VALID,100,VALID,0,VALID,19.615,VALID,198,VALID,0.258545,
2000-11-18, 02:49:00,VALID,913.501,VALID,0,VALID,100,VALID,0.0169808,VALID,19.6257,VALID,182,VALID,0.825321,
2000-11-18, 02:50:00,VALID,913.503,VALID,0,VALID,100,VALID,0.0169808,VALID,19.6155,VALID,191,VALID,0.477679,
2000-11-18, 02:51:00,VALID,913.514,VALID,0,VALID,100,VALID,0,VALID,19.6122,VALID,194,VALID,0.69299,
2000-11-18, 02:52:00,VALID,913.502,VALID,0,VALID,100,VALID,0,VALID,19.616,VALID,189,VALID,0.630285,
2000-11-18, 02:53:00,VALID,913.494,VALID,0,VALID,100,VALID,0.0169808,VALID,19.6127,VALID,193,VALID,0.67103,
2000-11-18, 02:54:00,VALID,913.503,VALID,0,VALID,100,VALID,0,VALID,19.6058,VALID,200,VALID,0.514803,
2000-11-18, 02:55:00,VALID,913.508,VALID,0,VALID,100,VALID,0,VALID,19.6093,VALID,179,VALID,0.593956,
2000-11-18, 02:56:00,VALID,913.514,VALID,0,VALID,100,VALID,0.0169808,VALID,19.5963,VALID,174,VALID,0.245982,
2000-11-18, 02:57:00,VALID,913.506,VALID,0,VALID,100,VALID,0,VALID,19.5859,VALID,132,VALID,0.298564,
2000-11-18, 02:58:00,VALID,913.52,VALID,0,VALID,100,VALID,0,VALID,19.606,VALID,118,VALID,0.394301,
2000-11-18, 02:59:00,VALID,913.513,VALID,0,VALID,100,VALID,0,VALID,19.5933,VALID,104,VALID,0.583404,
2000-11-18, 03:00:00,VALID,913.51,VALID,0,VALID,100,VALID,0,VALID,19.5635,VALID,108,VALID,0.646484,
2000-11-18, 03:01:00,VALID,913.483,VALID,0,VALID,100,VALID,0,VALID,19.5608,VALID,111,VALID,0.419872,
2000-11-18, 03:02:00,VALID,913.474,VALID,0,VALID,100,VALID,-0.0169808,VALID,19.5484,VALID,108,VALID,0.580804,
2000-11-18, 03:03:00,VALID,913.455,VALID,0,VALID,100,VALID,0,VALID,19.5349,VALID,120,VALID,0.570735,
2000-11-18, 03:04:00,VALID,913.442,VALID,0,VALID,100,VALID,0,VALID,19.5349,VALID,120,VALID,0.252298,
2000-11-18, 03:05:00,VALID,913.419,VALID,0,VALID,100,VALID,0,VALID,19.5248,VALID,120,VALID,0,
2000-11-18, 03:06:00,VALID,913.404,VALID,0,VALID,100,VALID,0,VALID,19.532,VALID,120,VALID,0,
2000-11-18, 03:07:00,VALID,913.408,VALID,0,VALID,100,VALID,0.0169808,VALID,19.5419,VALID,120,VALID,0,
2000-11-18, 03:08:00,VALID,913.399,VALID,0,VALID,100,VALID,-0.0169808,VALID,19.5481,VALID,120,VALID,0,
2000-11-18, 03:09:00,VALID,913.404,VALID,0,VALID,100,VALID,0,VALID,19.5412,VALID,120,VALID,0,
2000-11-18, 03:10:00,VALID,913.409,VALID,0,VALID,100,VALID,-0.0169808,VALID,19.5578,VALID,120,VALID,0,
2000-11-18, 03:11:00,VALID,913.417,VALID,0,VALID,100,VALID,0,VALID,19.5543,VALID,112,VALID,0.0534206,
2000-11-18, 03:12:00,VALID,913.427,VALID,0,VALID,100,VALID,-0.0169808,VALID,19.5417,VALID,76,VALID,0.630371,
2000-11-18, 03:13:00,VALID,913.444,VALID,0,VALID,100,VALID,0,VALID,19.5352,VALID,61,VALID,0.623397,
2000-11-18, 03:14:00,VALID,913.443,VALID,0,VALID,100,VALID,0,VALID,19.5218,VALID,70,VALID,0.598214,
2000-11-18, 03:15:00,VALID,913.46,VALID,0,VALID,100,VALID,0,VALID,19.5061,VALID,80,VALID,0.83636,
2000-11-18, 03:16:00,VALID,913.474,VALID,0,VALID,100,VALID,0,VALID,19.4964,VALID,73,VALID,0.671875,
2000-11-18, 03:17:00,VALID,913.465,VALID,0.2,VALID,100,VALID,0.0169808,VALID,19.49,VALID,71,VALID,0.500845,
2000-11-18, 03:18:00,VALID,913.476,VALID,0,VALID,100,VALID,0,VALID,19.4703,VALID,65,VALID,0.392887,
2000-11-18, 03:19:00,VALID,913.472,VALID,0,VALID,100,VALID,0.0169808,VALID,19.4736,VALID,42,VALID,0.519942,
2000-11-18, 03:20:00,VALID,913.48,VALID,0,VALID,100,VALID,0.0169808,VALID,19.4962,VALID,42,VALID,0.0676339,
2000-11-18, 03:21:00,VALID,913.465,VALID,0,VALID,100,VALID,0,VALID,19.4992,VALID,49,VALID,0,
2000-11-18, 03:22:00,VALID,913.454,VALID,0.2,VALID,100,VALID,0,VALID,19.5091,VALID,49,VALID,0,
2000-11-18, 03:23:00,VALID,913.447,VALID,0,VALID,100,VALID,0,VALID,19.5188,VALID,49,VALID,0,
2000-11-18, 03:24:00,VALID,913.439,VALID,0,VALID,100,VALID,0,VALID,19.519,VALID,49,VALID,0,
2000-11-18, 03:25:00,VALID,913.417,VALID,0,VALID,100,VALID,0,VALID,19.5158,VALID,49,VALID,0,
2000-11-18, 03:26:00,VALID,913.396,VALID,0,VALID,100,VALID,0,VALID,19.519,VALID,49,VALID,0,
2000-11-18, 03:27:00,VALID,913.4,VALID,0,VALID,100,VALID,-0.0169808,VALID,19.522,VALID,49,VALID,0,
2000-11-18, 03:28:00,VALID,913.378,VALID,0,VALID,100,VALID,0.0169808,VALID,19.5091,VALID,77,VALID,0,
2000-11-18, 03:29:00,VALID,913.385,VALID,0,VALID,100,VALID,0,VALID,19.522,VALID,99,VALID,0,
2000-11-18, 03:30:00,VALID,913.394,VALID,0,VALID,100,VALID,0.0169808,VALID,19.5352,VALID,114,VALID,0,
2000-11-18, 03:31:00,VALID,913.408,VALID,0,VALID,100,VALID,0.0169808,VALID,19.5449,VALID,111,VALID,0,
2000-11-18, 03:32:00,VALID,913.413,VALID,0.2,VALID,100,VALID,0.0169808,VALID,19.5317,VALID,114,VALID,0,
2000-11-18, 03:33:00,VALID,913.421,VALID,0,VALID,100,VALID,-0.0679233,VALID,19.5334,VALID,142,VALID,0,
2000-11-18, 03:34:01,VALID,913.424,VALID,0,VALID,100,VALID,-0.0679233,VALID,19.527,VALID,186,VALID,0,
2000-11-18, 03:35:00,VALID,913.425,VALID,0,VALID,100,VALID,-0.0849042,VALID,19.5141,VALID,210,VALID,0,
2000-11-18, 03:36:00,VALID,913.411,VALID,0,VALID,100,VALID,-0.101885,VALID,19.5108,VALID,233,VALID,0.501709,
2000-11-18, 03:37:00,VALID,913.397,VALID,0.2,VALID,100,VALID,-0.101885,VALID,19.5141,VALID,234,VALID,0.559896,
2000-11-18, 03:38:00,VALID,913.386,VALID,0,VALID,100,VALID,-0.0849042,VALID,19.5267,VALID,241,VALID,0.635938,
2000-11-18, 03:39:00,VALID,913.375,VALID,0,VALID,100,VALID,-0.0679233,VALID,19.5267,VALID,233,VALID,0.579814,
2000-11-18, 03:40:00,VALID,913.358,VALID,0.2,VALID,100,VALID,-0.0849042,VALID,19.5399,VALID,211,VALID,0.465074,
2000-11-18, 03:41:00,VALID,913.369,VALID,0,VALID,100,VALID,-0.0849042,VALID,19.5496,VALID,212,VALID,0.277238,
2000-11-18, 03:42:00,VALID,913.358,VALID,0,VALID,100,VALID,-0.101885,VALID,19.5329,VALID,202,VALID,0.297492,
2000-11-18, 03:43:00,VALID,913.361,VALID,0,VALID,100,VALID,-0.0679233,VALID,19.5369,VALID,202,VALID,0.176604,